Weather History for Milton, FL

Change the Weather History Date:

Wednesday, March 6, 2013

  Actual Average (KNSE) Record (KNSE)
Temperature  
Mean Temperature 49 °F -  
Max Temperature 59 °F 66 °F 79 °F (2006)
Min Temperature 39 °F 46 °F 30 °F (2002)
Degree Days  
Heating Degree Days 16    
Moisture  
Dew Point 28 °F    
Average Humidity 49    
Maximum Humidity 89    
Minimum Humidity 26    
Precipitation  
Precipitation 0.00 in - - ()
Sea Level Pressure  
Sea Level Pressure 30.17 in    
Wind  
Wind Speed 10 mph (NNW)    
Max Wind Speed 21 mph    
Max Gust Speed 28 mph    
Visibility 10 miles    
Events      
Averages and records for this station are not official NWS values.
T = Trace of Precipitation, MM = Missing Value Source: NWS Daily Summary

Daily Weather History Graph

Daily Weather History Graph

Search for Another Location

Airport:

Trip Planner

Search our weather history database for the weather conditions in past years. The results will help you decide how hot, cold, wet, or windy it might be!

Date:

Astronomy

Mar. 06, 2013 Rise Set
Actual Time 6:08 AM CST 5:50 PM CST
Civil Twilight 5:44 AM CST 6:14 PM CST
Nautical Twilight 5:16 AM CST 6:42 PM CST
Astronomical Twilight 4:48 AM CST 7:10 PM CST
Moon 2:00 AM CST (3/6) 12:48 PM CST (3/6)
Length of Visible Light 12h 30m
Length of Day
11h 41m
Waning Crescent, 29% of the Moon is Illuminated
Mar 6
Waning Crescent
Mar 11
New
Mar 19
First Quarter
Mar 27
Full
Apr 2
Last Quarter

Hourly Weather History & Observations

Time (CST) Temp. Windchill Dew Point Humidity Pressure Visibility Wind Dir Wind Speed Gust Speed Precip Events Conditions
12:56 AM 39.9 °F 37.8 °F 37.0 °F 89% 30.10 in 10.0 mi WNW 3.5 mph - N/A   Clear
1:56 AM 42.1 °F 37.7 °F 36.0 °F 79% 30.10 in 10.0 mi NW 6.9 mph - N/A   Clear
2:56 AM 44.1 °F 40.1 °F 33.1 °F 65% 30.10 in 10.0 mi NW 6.9 mph - N/A   Clear
3:56 AM 42.1 °F 37.1 °F 30.9 °F 65% 30.11 in 10.0 mi NW 8.1 mph - N/A   Clear
4:56 AM 42.1 °F 37.1 °F 27.0 °F 55% 30.14 in 10.0 mi NW 8.1 mph - N/A   Clear
5:56 AM 41.0 °F 34.7 °F 27.0 °F 57% 30.17 in 10.0 mi NW 10.4 mph - N/A   Clear
6:56 AM 41.0 °F 35.2 °F 27.0 °F 57% 30.19 in 10.0 mi NW 9.2 mph - N/A   Clear
7:56 AM 44.1 °F 37.1 °F 26.1 °F 49% 30.21 in 10.0 mi NNW 15.0 mph 19.6 mph N/A   Clear
8:56 AM 46.9 °F - 23.0 °F 39% 30.21 in 10.0 mi NNW 17.3 mph 27.6 mph N/A   Clear
9:56 AM 48.9 °F - 21.9 °F 35% 30.20 in 10.0 mi NNW 17.3 mph 25.3 mph N/A   Clear
10:56 AM 54.0 °F - 23.0 °F 30% 30.19 in 10.0 mi NNW 19.6 mph 26.5 mph N/A   Clear
11:56 AM 55.9 °F - 23.0 °F 28% 30.17 in 10.0 mi NNW 16.1 mph 26.5 mph N/A   Clear
12:56 PM 57.9 °F - 24.1 °F 27% 30.15 in 10.0 mi NNW 16.1 mph 25.3 mph N/A   Clear
1:56 PM 59.0 °F - 24.1 °F 26% 30.14 in 10.0 mi North 20.7 mph 25.3 mph N/A   Clear
2:56 PM 59.0 °F - 25.0 °F 27% 30.13 in 10.0 mi North 16.1 mph 24.2 mph N/A   Clear
3:56 PM 57.9 °F - 25.0 °F 28% 30.12 in 10.0 mi NNW 16.1 mph 25.3 mph N/A   Clear
4:56 PM 55.9 °F - 26.1 °F 32% 30.14 in 10.0 mi North 15.0 mph - N/A   Clear
5:56 PM 50.0 °F - 28.0 °F 43% 30.17 in 10.0 mi NNW 11.5 mph - N/A   Clear
6:56 PM 46.9 °F - 28.9 °F 50% 30.20 in 10.0 mi NNW 6.9 mph - N/A   Clear
7:56 PM 46.0 °F 42.5 °F 28.9 °F 51% 30.20 in 10.0 mi North 6.9 mph - N/A   Clear
8:56 PM 44.1 °F 40.8 °F 30.0 °F 58% 30.22 in 10.0 mi North 5.8 mph - N/A   Clear
9:56 PM 42.1 °F 37.1 °F 30.0 °F 62% 30.23 in 10.0 mi NNW 8.1 mph - N/A   Clear
10:56 PM 41.0 °F 34.7 °F 30.0 °F 65% 30.24 in 10.0 mi NNW 10.4 mph - N/A   Clear
11:56 PM 41.0 °F 35.8 °F 30.0 °F 65% 30.23 in 10.0 mi North 8.1 mph - N/A   Clear